TimeEST,TemperatureF,Dew PointF,Humidity,Sea Level PressureIn,VisibilityMPH,Wind Direction,Wind SpeedMPH,Gust SpeedMPH,PrecipitationIn,Events,Conditions,WindDirDegrees,DateUTC
12:55 AM,38.8,26.8,62,30.08,10.0,WNW,6.9,-,N/A,,Clear,300,2013-01-07 05:55:00
1:55 AM,37.6,26.2,64,30.10,10.0,West,3.5,-,N/A,,Clear,280,2013-01-07 06:55:00
2:55 AM,37.4,26.4,65,30.12,10.0,West,6.9,-,N/A,,Clear,280,2013-01-07 07:55:00
3:55 AM,37.4,26.6,65,30.12,10.0,WNW,8.1,-,N/A,,Clear,290,2013-01-07 08:55:00
4:55 AM,35.6,26.1,68,30.15,10.0,WNW,4.6,-,N/A,,Clear,300,2013-01-07 09:55:00
6:33 AM,33.8,26.6,75,30.19,10.0,WNW,4.6,-,N/A,,Partly Cloudy,290,2013-01-07 11:33:00
6:55 AM,34.7,26.2,71,30.22,10.0,West,8.1,-,N/A,,Clear,280,2013-01-07 11:55:00
7:55 AM,35.2,27.1,72,30.25,10.0,WNW,4.6,-,N/A,,Clear,290,2013-01-07 12:55:00
8:55 AM,40.3,28.9,64,30.29,10.0,WNW,6.9,-,N/A,,Clear,300,2013-01-07 13:55:00
9:55 AM,43.9,29.8,58,30.31,10.0,WNW,9.2,-,N/A,,Clear,300,2013-01-07 14:55:00
10:55 AM,45.3,29.1,53,30.33,10.0,NW,10.4,18.4,N/A,,Scattered Clouds,310,2013-01-07 15:55:00
11:55 AM,44.6,27.7,52,30.32,10.0,WNW,11.5,-,N/A,,Mostly Cloudy,300,2013-01-07 16:55:00
12:55 PM,46.9,26.4,45,30.33,10.0,NNW,15.0,-,N/A,,Scattered Clouds,330,2013-01-07 17:55:00
1:55 PM,47.7,26.1,43,30.33,10.0,North,9.2,-,N/A,,Scattered Clouds,350,2013-01-07 18:55:00
2:55 PM,46.6,25.2,43,30.34,10.0,WNW,9.2,-,N/A,,Clear,300,2013-01-07 19:55:00
3:55 PM,45.3,24.3,44,30.36,10.0,WNW,8.1,-,N/A,,Clear,300,2013-01-07 20:55:00
4:55 PM,41.5,23.4,49,30.38,10.0,WNW,4.6,-,N/A,,Clear,300,2013-01-07 21:55:00
5:55 PM,36.0,23.7,61,30.39,10.0,Calm,Calm,-,N/A,,Clear,0,2013-01-07 22:55:00
6:55 PM,31.6,22.8,70,30.39,10.0,Calm,Calm,-,N/A,,Clear,0,2013-01-07 23:55:00
7:55 PM,30.2,22.3,72,30.40,10.0,SW,3.5,-,N/A,,Clear,230,2013-01-08 00:55:00
8:55 PM,33.1,24.1,70,30.40,10.0,West,3.5,-,N/A,,Clear,260,2013-01-08 01:55:00
9:55 PM,29.1,23.7,80,30.40,10.0,SW,3.5,-,N/A,,Clear,220,2013-01-08 02:55:00
10:55 PM,29.5,24.1,80,30.40,10.0,Calm,Calm,-,N/A,,Clear,0,2013-01-08 03:55:00
11:55 PM,28.0,23.7,84,30.40,10.0,WSW,3.5,-,N/A,,Clear,250,2013-01-08 04:55:00